Location: El Bakhil
(32.7726°N, 5.5387°W)
Time: 05:23:55
(UTC+00:00)

SWIFT - Pass Details

Date: 03 March 2021
Orbit: 544 x 559 km, 20.6° (Epoch: 12 April)

Event Time Altitude Azimuth Distance (km) Brightness Sun altitude
Rises 19:53:48 0° 238° (WSW) 2,684 6.7 -20.3°
Reaches altitude 10° 19:56:52 10° 215° (SW) 1,791 5.3 -20.9°
Maximum altitude 19:59:16 15° 179° (S) 1,499 4.4 -21.4°
Enters shadow 19:59:22 15° 177° (S) 1,499 4.4 -21.4°
